Plattsburgh, NY

3:32 AM EST on November 24, 2017 (GMT -0500)
Plattsburgh International

Weather History for KPBG - January, 2014

Change the Weather History Date:

Thursday, January 16, 2014

  Actual Average Record
Temperature  
Mean Temperature 31 °F 16 °F  
Max Temperature 33 °F 27 °F 53 °F (1953)
Min Temperature 28 °F 6 °F -24 °F (2009)
Degree Days  
Heating Degree Days 34 49  
Month to date heating degree days 715 759  
Since 1 July heating degree days 3767 3645  
Cooling Degree Days 0 0  
Month to date cooling degree days 0  
Year to date cooling degree days 0  
Moisture  
Dew Point 23 °F    
Average Humidity 68    
Maximum Humidity 85    
Minimum Humidity 51    
Precipitation  
Precipitation T in - 0.41 in (1959)
Month to date precipitation 0.63  
Year to date precipitation 0.63  
Sea Level Pressure  
Sea Level Pressure 29.95 in    
Wind  
Wind Speed 3 mph (NNE)    
Max Wind Speed 10 mph    
Max Gust Speed 14 mph    
Visibility 8 miles    
Events Snow    
T = Trace of Precipitation, MM = Missing Value Source: NWS Daily Summary

Daily Weather History Graph

Daily Weather History Graph

Search for Another Location

Airport or City:

Trip Planner

Search our weather history database for the weather conditions in past years. The results will help you decide how hot, cold, wet, or windy it might be!

Date:

Astronomy

Jan. 16, 2014 Rise Set
Actual Time 7:26 AM EST 4:40 PM EST
Civil Twilight 6:54 AM EST 5:13 PM EST
Nautical Twilight 6:18 AM EST 5:49 PM EST
Astronomical Twilight 5:43 AM EST 6:24 PM EST
Moon 5:34 PM EST (1/16) 7:15 AM EST (1/16)
Length of Visible Light 10h 18m
Length of Day
9h 14m
Full, 100% of the Moon is Illuminated
Jan 16
Full
Jan 24
Last Quarter
Jan 30
New
Feb 6
First Quarter
Feb 14
Full

Hourly Weather History & Observations

Time (EST) Temp. Windchill Dew Point Humidity Pressure Visibility Wind Dir Wind Speed Gust Speed Precip Events Conditions
12:53 AM 33.1 °F - 19.0 °F 56% 29.94 in 10.0 mi Calm Calm - N/A   Overcast
1:53 AM 33.1 °F - 18.0 °F 54% 29.96 in 10.0 mi Calm Calm - N/A   Overcast
2:53 AM 30.9 °F - 21.0 °F 67% 29.94 in 10.0 mi Calm Calm - N/A   Overcast
3:53 AM 30.0 °F 26.5 °F 26.1 °F 85% 29.94 in 10.0 mi NNE 3.5 mph - N/A   Overcast
4:53 AM 32.0 °F - 19.9 °F 61% 29.96 in 10.0 mi Calm Calm - N/A   Overcast
5:53 AM 30.9 °F - 19.0 °F 61% 29.95 in 10.0 mi Calm Calm - N/A   Overcast
6:53 AM 30.0 °F - 21.9 °F 72% 29.96 in 10.0 mi Calm Calm - N/A   Unknown
7:53 AM 30.0 °F 25.2 °F 24.1 °F 79% 29.94 in 10.0 mi East 4.6 mph - N/A   Overcast
8:53 AM 30.0 °F - 25.0 °F 82% 29.97 in 10.0 mi Calm Calm - N/A   Overcast
9:53 AM 30.0 °F - 25.0 °F 82% 29.99 in 10.0 mi Calm Calm - N/A   Overcast
10:53 AM 30.0 °F 26.5 °F 25.0 °F 82% 29.99 in 4.0 mi ESE 3.5 mph - 0.00 in Snow Light Snow
11:53 AM 30.0 °F 25.2 °F 25.0 °F 82% 29.97 in 10.0 mi NE 4.6 mph - 0.00 in   Overcast
12:29 PM 30.0 °F 23.2 °F 26.1 °F 85% 29.94 in 5.0 mi NE 6.9 mph - 0.00 in   Overcast
12:53 PM 30.0 °F 22.4 °F 26.1 °F 85% 29.94 in 2.0 mi NNE 8.1 mph - 0.00 in Snow Light Snow
1:01 PM 28.9 °F 21.9 °F 26.1 °F 89% 29.94 in 1.2 mi NNE 6.9 mph - 0.00 in Snow Light Snow
1:15 PM 28.9 °F 21.9 °F 26.1 °F 89% 29.94 in 3.0 mi North 6.9 mph - 0.00 in Snow Light Snow
1:34 PM 30.0 °F 22.4 °F 26.1 °F 85% 29.93 in 5.0 mi NNE 8.1 mph - 0.00 in Snow Light Snow
1:46 PM 28.9 °F 21.9 °F 25.0 °F 85% 29.94 in 7.0 mi NNE 6.9 mph - 0.00 in   Overcast
1:53 PM 30.0 °F 22.4 °F 25.0 °F 82% 29.95 in 5.0 mi NNE 8.1 mph - 0.00 in   Haze
2:36 PM 30.0 °F 21.7 °F 25.0 °F 82% 29.93 in 2.5 mi NE 9.2 mph - 0.00 in Snow Light Snow
2:50 PM 30.2 °F 23.4 °F 24.8 °F 80% 29.93 in 4.0 mi NNE 6.9 mph - 0.00 in Snow Light Snow
2:53 PM 30.0 °F 23.2 °F 25.0 °F 82% 29.94 in 5.0 mi NE 6.9 mph - 0.00 in Snow Light Snow
3:53 PM 30.0 °F 25.2 °F 24.1 °F 79% 29.94 in 10.0 mi NE 4.6 mph - 0.00 in   Overcast
4:44 PM 30.0 °F 25.2 °F 23.0 °F 75% 29.93 in 10.0 mi NNE 4.6 mph - N/A   Overcast
4:53 PM 30.0 °F 24.1 °F 23.0 °F 75% 29.94 in 10.0 mi North 5.8 mph - N/A   Overcast
5:18 PM 28.9 °F 23.9 °F 23.0 °F 78% 29.92 in 10.0 mi North 4.6 mph - N/A   Overcast
5:53 PM 28.9 °F 23.9 °F 24.1 °F 82% 29.94 in 10.0 mi North 4.6 mph - N/A   Overcast
6:53 PM 28.9 °F 23.9 °F 21.9 °F 75% 29.94 in 10.0 mi NNW 4.6 mph - N/A   Overcast
7:09 PM 28.9 °F - 21.9 °F 75% 29.93 in 10.0 mi Calm Calm - N/A   Overcast
7:53 PM 28.9 °F 23.9 °F 21.9 °F 75% 29.94 in 10.0 mi NW 4.6 mph - N/A   Overcast
8:53 PM 28.9 °F - 21.9 °F 75% 29.95 in 10.0 mi Calm Calm - N/A   Overcast
9:53 PM 28.0 °F - 21.9 °F 78% 29.95 in 10.0 mi Calm Calm - N/A   Overcast
10:53 PM 28.0 °F - 21.0 °F 75% 29.94 in 10.0 mi Calm Calm - N/A   Overcast
11:23 PM 28.0 °F 22.8 °F 21.9 °F 78% 29.93 in 10.0 mi West 4.6 mph - N/A   Overcast
11:53 PM 28.0 °F - 21.9 °F 78% 29.94 in 10.0 mi Calm Calm - N/A   Overcast